Hourly Data Report for October 03, 2017

All times are specified in Local Standard Time (LST). Add 1 hour to adjust for Daylight Saving Time where and when it is observed.

FISHER BRANCH (AUT)
MANITOBA

51°05'00.100" N
97°33'16.200" W
253.00 m
50309J6
71442
WSZ

Download Data

Hourly Data (October 2017)
Hourly Data Report for October 3, 2017
Temp Definition
°C
Dew Point Temp Definition
°C
Rel Hum Definition
%
Wind Dir Definition
10's deg

Wind Spd Definition
km/h
Visibility Definition
km
Stn Press Definition
kPa
Hmdx Definition


Wind Chill Definition


Weather Definition


TIME
00:00 4.7 2.9 88 17 9   98.15     LegendNANA
01:00 4.6 2.7 87 18 10   98.17     LegendNANA
02:00 4.9 2.5 84 17 12   98.24     LegendNANA
03:00 3.8 2.0 88 19 8   98.20     LegendNANA
04:00 4.0 2.0 87 19 10   98.30     LegendNANA
05:00 3.8 2.1 89 21 6   98.37     LegendNANA
06:00 3.6 2.3 92 19 7   98.43     LegendNANA
07:00 3.2 2.2 93 19 6   98.46     LegendNANA
08:00 4.0 2.9 93 0 1   98.49     LegendNANA
09:00 6.3 4.9 91 15 2   98.57     LegendNANA
10:00 6.8 4.9 88 13 4   98.63     LegendNANA
11:00 8.4 5.8 84 5 3   98.65     LegendNANA
12:00 11.5 4.6 63 32 4   98.69     LegendNANA
13:00 11.7 4.7 62 14 9   98.72     LegendNANA
14:00 11.1 5.5 68 20 9   98.75     LegendNANA
15:00 10.8 5.9 72 18 10   98.73     LegendNANA
16:00 10.5 6.6 77 20 9   98.77     LegendNANA
17:00 10.4 6.9 79 22 4   98.85     LegendNANA
18:00 9.5 6.1 79 23 4   98.89     LegendNANA
19:00 7.8 5.7 87 20 4   98.90     LegendNANA
20:00 7.6 5.4 86 19 5   98.93     LegendNANA
21:00 6.8 4.6 86 20 8   98.92     LegendNANA
22:00 4.5 3.2 91 20 8   98.90     LegendNANA
23:00 3.3 2.2 93 27 6   98.90     LegendNANA

Notes on Data Quality.

Legend

  • E = Estimated
  • M = Missing
  • NA = Not Available
  • ‡ = Partner data that is not subject to review by the National Climate Archives
Date modified: